This is the latest recevied weather packets stored in our database for station/object KI4HRG. If no packets are shown the sender has not sent any weather packets the latest 10 day(s).
| Time | Temp. | Humidity | Pressure | Rain* | Wind** | Luminosity | Snow |
|---|---|---|---|---|---|---|---|
| 1787545887 | 23.89° C | 81% | 1016.2 hPa | 0 mm | - | 0 W/m² | - |
| 1787545584 | 24.44° C | 80% | 1015.9 hPa | 0 mm | - | 0 W/m² | - |
| 1787545279 | 24.44° C | 78% | 1016 hPa | 0 mm | - | 0 W/m² | - |
| 1787544975 | 24.44° C | 78% | 1015.9 hPa | 0 mm | - | 0 W/m² | - |
| 1787544673 | 25° C | 77% | 1015.9 hPa | 0 mm | - | 0 W/m² | - |
| 1787544369 | 25° C | 77% | 1015.8 hPa | 0 mm | - | 0 W/m² | - |
| 1787544063 | 25° C | 77% | 1015.7 hPa | 0 mm | - | 0 W/m² | - |
| 1787543759 | 25° C | 77% | 1015.8 hPa | 0 mm | - | 0 W/m² | - |
| 1787543454 | 25° C | 77% | 1015.7 hPa | 0 mm | - | 0 W/m² | - |
| 1787543150 | 25.56° C | 79% | 1015.9 hPa | 0 mm | - | 0 W/m² | - |
| 1787542850 | 25.56° C | 79% | 1015.8 hPa | 0 mm | - | 0 W/m² | - |
| 1787542545 | 25.56° C | 77% | 1015.7 hPa | 0 mm | - | 0 W/m² | - |
| 1787542241 | 25.56° C | 78% | 1015.9 hPa | 0 mm | - | 0 W/m² | - |
| 1787541937 | 25.56° C | 78% | 1015.9 hPa | 0 mm | - | 0 W/m² | - |
| 1787541633 | 26.11° C | 81% | 1015.9 hPa | 0 mm | - | 0 W/m² | - |
| 1787541330 | 26.11° C | 79% | 1015.9 hPa | 0 mm | - | 0 W/m² | - |
| 1787541026 | 26.11° C | 80% | 1016 hPa | 0 mm | - | 0 W/m² | - |
| 1787540722 | 26.11° C | 79% | 1015.8 hPa | 0 mm | - | 0 W/m² | - |
| 1787540421 | 26.67° C | 80% | 1015.8 hPa | 0 mm | - | 0 W/m² | - |
| 1787540115 | 26.67° C | 79% | 1015.8 hPa | 0 mm | - | 0 W/m² | - |
| 1787539811 | 26.67° C | 75% | 1015.9 hPa | 0 mm | - | 0 W/m² | - |
| 1787539506 | 26.67° C | 75% | 1015.8 hPa | 0 mm | - | 0 W/m² | - |
| 1787539205 | 26.67° C | 78% | 1015.7 hPa | 0 mm | - | 0 W/m² | - |
| 1787538901 | 27.22° C | 74% | 1015.6 hPa | 0 mm | - | 0 W/m² | - |
| 1787538598 | 27.22° C | 75% | 1015.6 hPa | 0 mm | - | 0 W/m² | - |
* Rain latest hour (hover to see other rain measurements)
** Current wind speed in m/s (hover to see current wind gust speed)